TimeMST,TemperatureF,Dew PointF,Humidity,Sea Level PressureIn,VisibilityMPH,Wind Direction,Wind SpeedMPH,Gust SpeedMPH,PrecipitationIn,Events,Conditions,WindDirDegrees,DateUTC
12:24 AM,78.8,53.6,42,30.18,10.0,ESE,9.2,-,N/A,Thunderstorm,Mostly Cloudy,120,2013-07-02 07:24:00
12:32 AM,75.2,55.4,50,30.20,10.0,East,21.9,27.6,N/A,Rain-Thunderstorm,Light Rain Showers,100,2013-07-02 07:32:00
12:55 AM,69.8,59.0,68,30.01,7.0,ESE,23.0,31.1,N/A,Rain-Thunderstorm,Light Thunderstorms and Rain,110,2013-07-02 07:55:00
1:55 AM,69.8,59.0,68,29.95,10.0,East,11.5,-,N/A,,Overcast,90,2013-07-02 08:55:00
2:55 AM,69.8,55.4,60,30.04,10.0,ESE,15.0,-,N/A,,Overcast,110,2013-07-02 09:55:00
3:15 AM,68.0,57.2,68,30.24,10.0,ESE,9.2,-,N/A,Rain,Light Rain Showers,120,2013-07-02 10:15:00
3:55 AM,66.2,57.2,73,30.02,10.0,SSE,4.6,-,N/A,Rain,Light Rain Showers,160,2013-07-02 10:55:00
4:55 AM,66.2,60.8,83,30.00,10.0,SW,10.4,-,N/A,Rain,Light Rain Showers,230,2013-07-02 11:55:00
5:15 AM,66.2,59.0,78,30.19,10.0,West,18.4,-,N/A,,Mostly Cloudy,260,2013-07-02 12:15:00
5:55 AM,66.2,57.2,73,30.03,10.0,North,3.5,-,N/A,,Overcast,360,2013-07-02 12:55:00
6:55 AM,69.8,57.2,64,30.04,10.0,SW,5.8,-,N/A,,Mostly Cloudy,220,2013-07-02 13:55:00
7:55 AM,71.6,57.2,60,30.04,10.0,Calm,Calm,-,N/A,,Mostly Cloudy,0,2013-07-02 14:55:00
8:55 AM,75.2,53.6,47,30.04,10.0,ENE,6.9,-,N/A,,Mostly Cloudy,60,2013-07-02 15:55:00
9:55 AM,78.8,55.4,44,30.04,10.0,ESE,6.9,-,N/A,,Mostly Cloudy,110,2013-07-02 16:55:00
10:55 AM,80.6,53.6,39,30.04,10.0,Variable,4.6,-,N/A,,Mostly Cloudy,0,2013-07-02 17:55:00
11:55 AM,84.2,51.8,33,30.01,10.0,East,6.9,-,N/A,,Scattered Clouds,100,2013-07-02 18:55:00
12:55 PM,86.0,50.0,29,29.99,10.0,Calm,Calm,-,N/A,,Mostly Cloudy,0,2013-07-02 19:55:00
1:55 PM,89.6,50.0,26,29.96,10.0,Calm,Calm,-,N/A,,Scattered Clouds,0,2013-07-02 20:55:00
2:55 PM,89.6,48.2,24,29.93,10.0,Variable,4.6,-,N/A,,Mostly Cloudy,0,2013-07-02 21:55:00
3:55 PM,89.6,46.4,22,29.90,10.0,North,5.8,-,N/A,,Mostly Cloudy,350,2013-07-02 22:55:00
4:55 PM,91.4,46.4,21,29.88,10.0,Variable,3.5,-,N/A,,Mostly Cloudy,0,2013-07-02 23:55:00
5:55 PM,91.4,48.2,23,29.87,10.0,North,5.8,-,N/A,,Mostly Cloudy,350,2013-07-03 00:55:00
6:55 PM,89.6,48.2,24,29.88,10.0,North,8.1,-,N/A,,Mostly Cloudy,360,2013-07-03 01:55:00
7:55 PM,87.8,51.8,29,29.90,10.0,NNW,13.8,-,N/A,,Overcast,330,2013-07-03 02:55:00
8:55 PM,80.6,51.8,37,29.95,10.0,NNE,13.8,29.9,N/A,Thunderstorm,Thunderstorm,20,2013-07-03 03:55:00
9:13 PM,75.2,53.6,47,30.18,10.0,North,17.3,21.9,N/A,,Overcast,350,2013-07-03 04:13:00
9:55 PM,75.2,53.6,47,30.01,10.0,NW,3.5,-,N/A,,Overcast,310,2013-07-03 04:55:00
10:22 PM,71.6,55.4,57,30.23,10.0,North,23.0,38.0,N/A,Thunderstorm,Overcast,10,2013-07-03 05:22:00
10:55 PM,69.8,55.4,60,30.07,10.0,NNE,13.8,24.2,N/A,,Overcast,30,2013-07-03 05:55:00
11:55 PM,73.4,53.6,50,29.98,10.0,SSE,13.8,-,N/A,,Overcast,160,2013-07-03 06:55:00